Regional Weather Roundup
Issued by NWS Cleveland, OH

Home | Current Version | Previous Version | Graphics & Text | Print | Product List | Glossary On
Versions: 1 2 3 4 5 6 7 8 9 10 11 12 13 14 15 16 17 18 19 20 21 22 23 24 25 26 27 28 29 30 31 32 33 34 35 36 37 38 39 40 41 42 43 44 45 46 47 48 49 50
174
ASUS41 KCLE 191510
RWRCLE
OHIO REGIONAL WEATHER ROUNDUP
NATIONAL WEATHER SERVICE WILMINGTON, OH
1100 AM EDT TUE SEP 19 2017

NOTE: "FAIR" INDICATES FEW OR NO CLOUDS BELOW 12,000 FEET WITH NO
SIGNIFICANT WEATHER AND/OR OBSTRUCTIONS TO VISIBILITY.

OHZ001>008-015>018-024>027-034-035-043-044-191600-
   NORTHWEST OHIO

CITY           SKY/WX    TMP DP  RH WIND       PRES   REMARKS
DEFIANCE       CLOUDY    67  65  93 E8        29.98S
FINDLAY        LGT RAIN  69  65  86 E6        29.99F FOG
TOLEDO EXPRESS RAIN      65  32  29 NE5       30.00F
TOLEDO EXEC    RAIN      69  67  93 S3        30.02S FOG
LIMA           PTSUNNY   71  67  87 CALM      30.00R
$$

OHZ009>014-019>023-028>033-038-089-191600-
   NORTHEAST OHIO

CITY           SKY/WX    TMP DP  RH WIND       PRES   REMARKS
CLE-HOPKINS    CLOUDY    76  64  66 SE3       30.02S
CLE-LAKEFRONT  PTSUNNY   75  62  64 VRB5      30.00R HAZE
CUY CO. ARPT   PTSUNNY   79  66  65 S8        30.02S
LORAIN-ELYRIA  CLOUDY    69  61  75 S3        30.01S
ASHTABULA      FAIR      74  66  76 S10       30.05R
AKRON-CANTON   PTSUNNY   80  64  58 S9        30.03S
WOOSTER        CLOUDY    70  65  84 VRB3      30.03S
MANSFIELD      CLOUDY    75  64  68 S9        30.02S
YOUNGSTOWN     CLOUDY    73  65  75 VRB5      30.05S
$$

OHZ042-051>053-060>062-070>072-077>081-191600-
  SOUTHWEST OHIO

CITY           SKY/WX    TMP DP  RH WIND       PRES   REMARKS
CINC-COVINGTON LGT RAIN  70  70 100 S7        30.02R FOG
CINC-LUNKEN    LGT RAIN  70  69  97 S7        30.03R FOG
HAMILTON       LGT RAIN  71  70  96 VRB3      30.02R FOG
DAYTON         PTSUNNY   70  65  84 S8        30.01R
WRIGHT-PAT AFB CLOUDY    72  68  88 SW6       30.00R
DAYTON GENERAL FAIR      72  66  81 S9        30.00S
WILMINGTON     LGT RAIN  69  66  90 S10       30.02R
$$

OHZ036-037-039>041-045>050-054>059-063>069-073>076-082>088-191600-
  CENTRAL AND SOUTHEAST OHIO

CITY           SKY/WX    TMP DP  RH WIND       PRES   REMARKS
COLUMBUS       CLOUDY    74  66  76 SE6       30.01R
OSU AIRPORT    CLOUDY    74  66  76 S6        30.01R
BOLTON FIELD   CLOUDY    73  66  78 S3        30.02R
RICKENBACK AFB CLOUDY    73  67  82 CALM      30.01R
NEWARK         CLOUDY    75  65  70 VRB6      30.02S
MARION         CLOUDY    74  63  68 S9        30.01R
LANCASTER      CLOUDY    73  66  78 SE6       30.02S
ZANESVILLE     CLOUDY    75  65  70 SW6       30.03R
NEW PHILLY     CLOUDY    77  66  68 CALM      30.03S
$$




USA.gov is the U.S. government's official web portal to all federal, state and local government web resources and services.